Location: Unspecified
(0.0000°N, 0.0000°E)
Time: 16:35:03
(UTC+00:00)

ISS - Pass Details

Date: 19 September 2020
Orbit: 419 x 420 km, 51.6° (Epoch: 19 September)

Event Time Altitude Azimuth Distance (km) Brightness Sun altitude
Exits shadow 03:56:56 15° 115° (ESE) 1,209 -0.8 -29.2°
Drops below altitude 10° 03:57:43 10° 122° (ESE) 1,494 -0.3 -29.0°
Sets 03:59:55 0° 131° (SE) 2,359 0.7 -28.4°
